This is the latest recevied weather packets stored in our database for station/object N5YHM-13. If no packets are shown the sender has not sent any weather packets the latest 10 day(s).
| Time | Temp. | Humidity | Pressure | Rain* | Wind** | Luminosity | Snow |
|---|---|---|---|---|---|---|---|
| 1777841268 | 24.44° C | 42% | 1021.1 hPa | 0 mm | - | 12 W/m² | - |
| 1777840965 | 23.89° C | 41% | 1021.2 hPa | 0 mm | - | 28 W/m² | - |
| 1777840663 | 24.44° C | 39% | 1021.2 hPa | 0 mm | - | 264 W/m² | - |
| 1777840360 | 23.89° C | 42% | 1021.3 hPa | 0 mm | - | 73 W/m² | - |
| 1777840057 | 23.89° C | 39% | 1021.2 hPa | 0 mm | - | 65 W/m² | - |
| 1777839755 | 23.89° C | 37% | 1021.4 hPa | 0 mm | - | 69 W/m² | - |
| 1777839452 | 23.89° C | 48% | 1021.5 hPa | 0 mm | - | 14 W/m² | - |
| 1777839149 | 23.89° C | 43% | 1021.6 hPa | 0 mm | - | 13 W/m² | - |
| 1777838845 | 23.89° C | 43% | 1021.5 hPa | 0 mm | - | 40 W/m² | - |
| 1777838542 | 23.33° C | 40% | 1021.7 hPa | 0 mm | - | 25 W/m² | - |
| 1777838239 | 23.89° C | 45% | 1021.9 hPa | 0 mm | - | 72 W/m² | - |
| 1777837936 | 23.89° C | 39% | 1021.8 hPa | 0 mm | - | 153 W/m² | - |
| 1777837634 | 23.33° C | 41% | 1021.7 hPa | 0 mm | - | 183 W/m² | - |
| 1777837329 | 23.33° C | 43% | 1022.1 hPa | 0 mm | - | 13 W/m² | - |
| 1777837026 | 23.33° C | 38% | 1022.2 hPa | 0 mm | - | 37 W/m² | - |
| 1777836722 | 23.33° C | 39% | 1022.3 hPa | 0 mm | - | 13 W/m² | - |
| 1777836418 | 23.89° C | 42% | 1022.2 hPa | 0 mm | - | 13 W/m² | - |
| 1777836113 | 23.89° C | 40% | 1022.6 hPa | 0 mm | - | 15 W/m² | - |
| 1777835809 | 23.89° C | 39% | 1022.3 hPa | 0 mm | - | 14 W/m² | - |
| 1777835506 | 23.89° C | 41% | 1022.5 hPa | 0 mm | - | 16 W/m² | - |
| 1777835198 | 23.89° C | 43% | 1022.4 hPa | 0 mm | - | 14 W/m² | - |
| 1777834895 | 23.33° C | 42% | 1022.5 hPa | 0 mm | - | 95 W/m² | - |
| 1777834592 | 22.78° C | 41% | 1022.7 hPa | 0 mm | - | 14 W/m² | - |
| 1777834287 | 23.33° C | 37% | 1022.8 hPa | 0 mm | - | 14 W/m² | - |
| 1777833982 | 23.33° C | 42% | 1022.8 hPa | 0 mm | - | 15 W/m² | - |
* Rain latest hour (hover to see other rain measurements)
** Current wind speed in m/s (hover to see current wind gust speed)